When you browse on this site, cookies collect data to enhance your experience and personalize the content and advertising you see.
Visit our Privacy Policy to learn more. By continuing to use the site, you agree to this use of cookies and data.
  • In United Kingdom
  • List of Countries
  • For 7 days
  • Water Temperature
  • Satellite Maps
  • Weather Map
  • Weather Widgets
  • user-avatar
    Login

    Hourly Weather Amirobod

    Today, 17 January, Thursday

    Time Temperature Precipitation Wind Pressure Humidity
    00:00 +3°C° 0 mm 5 mps 752 mmHg 64%
    01:00 +3°C° 0 mm 5 mps 752 mmHg 64%
    02:00 +3°C° 0 mm 5 mps 751 mmHg 65%
    03:00 +3°C° 0 mm 5 mps 751 mmHg 65%
    04:00 +3°C° 0 mm 5 mps 750 mmHg 67%
    05:00 +3°C° 0 mm 5 mps 750 mmHg 70%
    06:00 +3°C° 0 mm 6 mps 749 mmHg 72%
    07:00 +3°C° 0 mm 6 mps 749 mmHg 74%
    08:00 +4°C° 0 mm 6 mps 749 mmHg 70%
    09:00 +6°C° 0 mm 7 mps 748 mmHg 66%
    10:00 +9°C° 0 mm 8 mps 748 mmHg 62%
    11:00 +10°C° 0 mm 8 mps 747 mmHg 56%
    12:00 +12°C° 0 mm 7 mps 746 mmHg 51%
    13:00 +14°C° 0 mm 7 mps 746 mmHg 45%
    14:00 +14°C° 0 mm 6 mps 745 mmHg 43%
    15:00 +14°C° 0 mm 6 mps 745 mmHg 40%
    16:00 +15°C° 0 mm 5 mps 744 mmHg 38%
    17:00 +14°C° 0 mm 5 mps 743 mmHg 39%
    18:00 +13°C° 0 mm 5 mps 743 mmHg 40%
    19:00 +12°C° 0 mm 5 mps 742 mmHg 42%
    20:00 +11°C° 0 mm 6 mps 742 mmHg 40%
    21:00 +11°C° 0 mm 6 mps 741 mmHg 38%
    22:00 +11°C° 0 mm 6 mps 740 mmHg 36%
    23:00 +10°C° 0 mm 6 mps 740 mmHg 35%

    Tomorrow, 18 January, Friday

    Time Temperature Precipitation Wind Pressure Humidity
    00:00 +10°C° 0 mm 6 mps 739 mmHg 34%
    01:00 +10°C° 0 mm 6 mps 738 mmHg 33%
    02:00 +10°C° 0 mm 6 mps 738 mmHg 32%
    03:00 +10°C° 0 mm 6 mps 738 mmHg 31%
    04:00 +11°C° 0 mm 6 mps 737 mmHg 30%
    05:00 +10°C° 0.1 mm 6 mps 737 mmHg 37%
    06:00 +10°C° 0.1 mm 5 mps 737 mmHg 44%
    07:00 +10°C° 0.1 mm 5 mps 737 mmHg 50%
    08:00 +9°C° 0.3 mm 6 mps 738 mmHg 57%
    09:00 +8°C° 0.3 mm 7 mps 738 mmHg 64%
    10:00 +6°C° 0.3 mm 8 mps 739 mmHg 71%
    11:00 +6°C° 0 mm 8 mps 739 mmHg 68%
    12:00 +6°C° 0 mm 9 mps 740 mmHg 66%
    13:00 +6°C° 0 mm 9 mps 740 mmHg 63%
    14:00 +5°C° 0.2 mm 10 mps 741 mmHg 66%
    15:00 +5°C° 0.2 mm 10 mps 742 mmHg 69%
    16:00 +3°C° 0.2 mm 10 mps 743 mmHg 72%
    17:00 +3°C° 0.4 mm 11 mps 743 mmHg 73%
    18:00 +2°C° 0.4 mm 11 mps 744 mmHg 74%
    19:00 +2°C° 0.4 mm 12 mps 745 mmHg 75%
    20:00 +2°C° 0.4 mm 12 mps 746 mmHg 75%
    21:00 0°C° 0.4 mm 12 mps 746 mmHg 74%
    22:00 0°C° 0.4 mm 13 mps 747 mmHg 74%
    23:00 -1°C° 0 mm 12 mps 748 mmHg 74%

    Day after tomorrow, 19 January, Saturday

    Time Temperature Precipitation Wind Pressure Humidity
    00:00 -1°C° 0 mm 12 mps 748 mmHg 74%
    01:00 -2°C° 0 mm 12 mps 748 mmHg 75%
    02:00 -2°C° 0.1 mm 11 mps 749 mmHg 76%
    03:00 -3°C° 0.1 mm 11 mps 749 mmHg 76%
    04:00 -3°C° 0.1 mm 11 mps 749 mmHg 77%
    05:00 -3°C° 0.1 mm 11 mps 749 mmHg 77%
    06:00 -3°C° 0.1 mm 11 mps 750 mmHg 77%
    07:00 -4°C° 0.1 mm 10 mps 750 mmHg 77%
    08:00 -4°C° 0.1 mm 11 mps 750 mmHg 77%
    09:00 -4°C° 0.1 mm 11 mps 751 mmHg 77%
    10:00 -4°C° 0.1 mm 11 mps 751 mmHg 76%
    11:00 -4°C° 0.1 mm 11 mps 751 mmHg 75%
    12:00 -4°C° 0.1 mm 11 mps 751 mmHg 73%
    13:00 -3°C° 0.1 mm 11 mps 751 mmHg 71%
    14:00 -4°C° 0.1 mm 10 mps 751 mmHg 72%
    15:00 -4°C° 0.1 mm 10 mps 751 mmHg 72%
    16:00 -4°C° 0.1 mm 10 mps 751 mmHg 73%
    17:00 -4°C° 0.1 mm 9 mps 752 mmHg 75%
    18:00 -5°C° 0.1 mm 9 mps 752 mmHg 77%
    19:00 -5°C° 0.1 mm 9 mps 753 mmHg 79%
    20:00 -5°C° 0.2 mm 9 mps 753 mmHg 81%
    21:00 -5°C° 0.2 mm 8 mps 753 mmHg 83%
    22:00 -5°C° 0.2 mm 8 mps 753 mmHg 84%
    23:00 -5°C° 0.2 mm 8 mps 753 mmHg 84%

    20 January, Sunday

    Time Temperature Precipitation Wind Pressure Humidity
    00:00 -4°C° 0.2 mm 8 mps 753 mmHg 85%
    01:00 -4°C° 0.2 mm 8 mps 753 mmHg 85%
    02:00 -4°C° 0.1 mm 8 mps 754 mmHg 85%
    03:00 -3°C° 0.1 mm 7 mps 754 mmHg 85%
    04:00 -3°C° 0.1 mm 7 mps 754 mmHg 86%
    05:00 -3°C° 0.1 mm 7 mps 754 mmHg 85%
    06:00 -4°C° 0.1 mm 7 mps 755 mmHg 85%
    07:00 -4°C° 0.1 mm 7 mps 755 mmHg 85%
    08:00 -4°C° 0 mm 7 mps 756 mmHg 83%
    09:00 -4°C° 0 mm 7 mps 756 mmHg 82%
    10:00 -4°C° 0 mm 7 mps 757 mmHg 80%
    11:00 -3°C° 0 mm 7 mps 757 mmHg 78%
    12:00 -3°C° 0 mm 7 mps 757 mmHg 76%
    13:00 -2°C° 0 mm 7 mps 757 mmHg 74%
    14:00 -2°C° 0 mm 7 mps 757 mmHg 75%
    15:00 -2°C° 0 mm 6 mps 757 mmHg 76%
    16:00 -2°C° 0 mm 6 mps 757 mmHg 77%
    17:00 -2°C° 0 mm 5 mps 758 mmHg 81%
    18:00 -3°C° 0 mm 4 mps 758 mmHg 86%
    19:00 -2°C° 0 mm 3 mps 759 mmHg 90%
    20:00 -2°C° 0 mm 3 mps 759 mmHg 89%
    21:00 -2°C° 0 mm 3 mps 760 mmHg 87%
    22:00 -2°C° 0 mm 3 mps 760 mmHg 85%
    23:00 -2°C° 0 mm 2 mps 760 mmHg 85%

    21 January, Monday

    Time Temperature Precipitation Wind Pressure Humidity
    00:00 -2°C° 0 mm 2 mps 760 mmHg 85%
    01:00 -2°C° 0 mm 2 mps 760 mmHg 85%
    02:00 -2°C° 0 mm 2 mps 760 mmHg 87%
    03:00 0°C° 0 mm 1 mps 761 mmHg 89%
    04:00 -1°C° 0 mm 1 mps 761 mmHg 91%
    05:00 -1°C° 0 mm 1 mps 761 mmHg 90%
    06:00 -1°C° 0 mm 1 mps 761 mmHg 89%
    07:00 0°C° 0 mm 1 mps 761 mmHg 89%
    08:00 0°C° 0 mm 1 mps 762 mmHg 85%
    09:00 +1°C° 0 mm 1 mps 762 mmHg 81%
    10:00 +2°C° 0 mm 1 mps 762 mmHg 77%
    11:00 +2°C° 0 mm 1 mps 762 mmHg 73%
    12:00 +3°C° 0 mm 1 mps 762 mmHg 70%
    13:00 +4°C° 0 mm 1 mps 762 mmHg 67%
    14:00 +4°C° 0 mm 1 mps 761 mmHg 67%
    15:00 +4°C° 0 mm 1 mps 761 mmHg 66%
    16:00 +3°C° 0 mm 2 mps 761 mmHg 66%
    17:00 +2°C° 0 mm 2 mps 761 mmHg 69%
    18:00 +2°C° 0 mm 2 mps 761 mmHg 73%
    19:00 0°C° 0 mm 3 mps 762 mmHg 76%
    20:00 0°C° 0 mm 3 mps 761 mmHg 78%
    21:00 0°C° 0 mm 3 mps 761 mmHg 80%
    22:00 -1°C° 0 mm 3 mps 761 mmHg 81%
    23:00 -1°C° 0 mm 3 mps 761 mmHg 82%

    22 January, Tuesday

    Time Temperature Precipitation Wind Pressure Humidity
    00:00 -1°C° 0 mm 3 mps 761 mmHg 83%
    01:00 -1°C° 0 mm 3 mps 760 mmHg 84%
    02:00 -2°C° 0 mm 3 mps 760 mmHg 84%
    03:00 -2°C° 0 mm 3 mps 760 mmHg 83%
    04:00 -2°C° 0 mm 3 mps 759 mmHg 83%
    05:00 -2°C° 0 mm 3 mps 759 mmHg 81%
    06:00 -2°C° 0 mm 3 mps 759 mmHg 80%
    07:00 -2°C° 0 mm 3 mps 759 mmHg 78%
    08:00 -2°C° 0 mm 4 mps 759 mmHg 74%
    09:00 -1°C° 0 mm 4 mps 759 mmHg 70%
    10:00 0°C° 0 mm 4 mps 759 mmHg 65%
    11:00 +1°C° 0 mm 4 mps 759 mmHg 62%
    12:00 +2°C° 0 mm 3 mps 758 mmHg 59%
    13:00 +3°C° 0 mm 3 mps 757 mmHg 56%
    14:00 +3°C° 0 mm 3 mps 757 mmHg 56%
    15:00 +3°C° 0 mm 3 mps 757 mmHg 56%
    16:00 +3°C° 0 mm 3 mps 757 mmHg 56%
    17:00 +2°C° 0 mm 3 mps 757 mmHg 60%
    18:00 +3°C° 0 mm 2 mps 757 mmHg 64%
    19:00 +2°C° 0 mm 2 mps 758 mmHg 67%
    20:00 +2°C° 0 mm 2 mps 757 mmHg 69%
    21:00 +1°C° 0 mm 2 mps 757 mmHg 72%
    22:00 +1°C° 0 mm 2 mps 757 mmHg 74%
    23:00 +1°C° 0 mm 1 mps 757 mmHg 75%
    Show more